Home > Weather > Cape Dorset > Past weeks

Flag for Canada Past Weather in Cape Dorset, Nunavut, Canada — Yesterday and Last 2 Weeks

Now
41 °F

Fog.


Feels Like: 33 °F
Forecast: 40 / 45 °F
Wind: 14 mph from East

Location: Cape Dorset

Current Time: Aug 26, 2016 at 11:23:06 PM

Latest Report: Aug 26, 2016 at 10:56 PM


Visibility: 6 mi

Pressure: 29.62 "Hg

Humidity: 100%

Dew Point: 41 °F

Location of Cape DorsetLocation

Past Weather in Cape Dorset — Graph

°F

Cape Dorset Temperature Yesterday

Maximum temperature yesterday: 43 °F (at 12:00 AM)
Minimum temperature yesterday: 37 °F (at 2:53 AM)
Average temperature yesterday: 39 °F

High & Low Weather Summary for the Past Weeks

 TemperatureHumidityPressure
High59 °F (Aug 12, 3:00 PM)100% (Aug 20, 8:57 PM)29.97 "Hg (Aug 20, 8:57 PM)
Low37 °F (Aug 21, 8:00 PM)44% (Aug 12, 12:00 PM)29.00 "Hg (Aug 22, 3:00 PM)
Average47 °F83%29.68 "Hg
* Reported Aug 11 10:00 PM — Aug 26 10:01 PM, Cape Dorset, Weather by CustomWeather, © 2016

Note: Actual official high and low records may vary slightly from our data, if they occured in-between our weather recording intervals... More about our weather records

Advertising

Cape Dorset Weather History for the Previous 24 Hours

Scroll right to see more
 ConditionsComfort  
Time TempWeatherWind HumidityBarometerVisibility
10:01 PM
Fri, Aug 26
41 °FLight rain. Fog.14 mph100%29.61 "Hg6 mi
9:00 PM41 °FLow clouds.14 mph100%29.60 "Hg8 mi
8:53 PM41 °FMore clouds than sun.15 mph100%29.60 "Hg7 mi
8:00 PM41 °FFog.13 mph100%29.59 "Hg5 mi
7:00 PM41 °FLow clouds.14 mph100%29.57 "Hg7 mi
6:00 PM41 °FCloudy.16 mph100%29.55 "Hg8 mi
5:49 PM41 °FCloudy.15 mph100%29.55 "Hg9 mi
5:00 PM41 °FMostly cloudy.14 mph100%29.54 "Hg15 mi
4:00 PM41 °FPartly sunny.15 mph100%29.52 "Hg8 mi
3:47 PM41 °FFog.15 mph100%29.52 "Hg6 mi
3:00 PM41 °FFog.18 mph100%29.50 "Hg6 mi
2:00 PM39 °FDrizzle. Fog.22 mph100%29.48 "Hg0 mi
1:00 PM39 °FDrizzle. Fog.22 mph100%29.48 "Hg0 mi
12:00 PM39 °FDrizzle. Fog.23 mph100%29.47 "Hg0 mi
11:00 AM39 °FLight rain. Fog.22 mph100%29.47 "Hg0 mi
10:00 AM39 °FLight rain. Fog.22 mph100%29.47 "Hg0 mi
9:00 AM39 °FDrizzle. Fog.23 mph100%29.46 "Hg0 mi
8:00 AM39 °FDrizzle. Fog.22 mph100%29.46 "Hg1 mi
7:00 AM39 °FDrizzle. Fog.21 mph100%29.47 "Hg0 mi
6:00 AM39 °FLight rain. Fog.17 mph100%29.48 "Hg0 mi
5:00 AM39 °FLight rain. Fog.21 mph100%29.48 "Hg0 mi
4:03 AM39 °FFog.16 mph100%29.48 "Hg2 mi
3:00 AM39 °FLight rain. Fog.18 mph100%29.48 "Hg1 mi
2:50 AM39 °FLight rain. Fog.15 mph100%29.48 "Hg1 mi
2:00 AM39 °FFog.13 mph100%29.48 "Hg4 mi
1:00 AM39 °FLow clouds.13 mph100%29.49 "Hg7 mi
12:00 AM39 °FFog.8 mph100%29.49 "Hg5 mi
11:00 PM
Thu, Aug 25
39 °FFog.5 mph100%29.50 "Hg3 mi
Weather by CustomWeather, © 2016

See weather overviewHow to use our weather pages